Home > Weather > Samsun > Past weeks

Flag for Turkey Past Weather in Samsun, Turkey — Yesterday and Last 2 Weeks

Now
63 °F

Partly sunny.


Feels Like: 63 °F
Forecast: 54 / 69 °F
Wind: 8 mph from Southwest

Location: Samsun / Carsamba

Current Time: May 28, 2016 at 4:44:21 PM

Latest Report: May 28, 2016 at 3:50 PM


Visibility: N/A

Pressure: 29.86 "Hg

Humidity: 77%

Dew Point: 55 °F

Location of SamsunLocation

Past Weather in Samsun — Graph

°F

Samsun Temperature Yesterday

Maximum temperature yesterday: 68 °F (at 12:50 PM)
Minimum temperature yesterday: 59 °F (at 3:50 AM)
Average temperature yesterday: 63 °F

High & Low Weather Summary for the Past Weeks

 TemperatureHumidityPressure
High84 °F (May 25, 2:50 PM)94% (May 14, 4:50 AM)30.09 "Hg (May 14, 4:50 AM)
Low46 °F (May 20, 2:50 AM)33% (May 25, 2:50 PM)29.59 "Hg (May 13, 6:50 PM)
Average63 °F77%29.88 "Hg
* Reported May 13 2:50 PM — May 28 2:50 PM, Samsun, Weather by CustomWeather, © 2016

Note: Actual official high and low records may vary slightly from our data, if they occured in-between our weather recording intervals... More about our weather records

Advertising

Samsun Weather History for the Previous 24 Hours

Scroll right to see more
 ConditionsComfort  
Time TempWeatherWind HumidityBarometerVisibility
2:50 PM
Sat, May 28
63 °FSprinkles. Partly sunny.14 mph83%29.86 "HgN/A
1:50 PM63 °FSprinkles. Partly sunny.13 mph88%29.86 "HgN/A
12:50 PM61 °FSprinkles. Partly sunny.3 mph88%29.86 "Hg5 mi
11:50 AM61 °FSprinkles. Partly sunny.14 mph88%29.86 "Hg5 mi
10:50 AM61 °FSprinkles. Partly sunny.21 mph83%29.86 "HgN/A
9:50 AM61 °FSprinkles. Partly sunny.20 mph83%29.86 "Hg5 mi
8:50 AM61 °FSprinkles. Partly sunny.17 mph83%29.86 "Hg5 mi
7:50 AM59 °FSprinkles. Partly sunny.18 mph88%29.86 "Hg5 mi
6:50 AM61 °FSprinkles. Partly sunny.17 mph83%29.86 "Hg4 mi
5:50 AM61 °FSprinkles. Passing clouds.17 mph88%29.86 "Hg5 mi
4:50 AM61 °FSprinkles. Passing clouds.17 mph94%29.86 "Hg5 mi
3:50 AM63 °FSprinkles. Passing clouds.18 mph88%29.86 "Hg5 mi
2:50 AM63 °FSprinkles. Passing clouds.18 mph88%29.86 "Hg5 mi
1:50 AM61 °FRain showers. Passing clouds.15 mph94%29.86 "Hg4 mi
12:50 AM61 °FSprinkles. Passing clouds.16 mph94%29.89 "Hg5 mi
11:50 PM
Fri, May 27
61 °FSprinkles. Passing clouds.12 mph94%29.89 "Hg5 mi
10:50 PM61 °FSprinkles. Passing clouds.13 mph94%29.89 "Hg5 mi
9:50 PM63 °FSprinkles. Passing clouds.14 mph83%29.92 "Hg5 mi
8:50 PM63 °FSprinkles. Partly sunny.12 mph88%29.92 "Hg5 mi
7:50 PM64 °FBroken clouds.7 mph88%29.89 "HgN/A
6:50 PM64 °FBroken clouds.9 mph88%29.89 "HgN/A
5:50 PM64 °FBroken clouds.9 mph88%29.89 "HgN/A
4:50 PM64 °FPartly sunny.8 mph83%29.89 "HgN/A
Weather by CustomWeather, © 2016

See weather overviewHow to use our weather pages